STARLINK-1665, 46356

Orbit data source: Space-Track

STARLINK-1665, 46356 is a payload satellite owned by SpaceX/Seattle (US) in LEO that was launched on Thu, 03 Sep 2020 UTC via an FALCON 9 launch vehicle from the Air Force Eastern Test Range (AFETR). Payload-class satellites include a variety of spacecraft equipped with specific instruments for various scientific and technological missions. These include communications satellites like Starlink; space stations such as the ISS; scientific satellites like the Hubble; Earth observation satellites from companies like Planet Labs, Umbra, and HawkEye 360; GPS; miniature CubeSats for education and research; and military/defense satellites.

Not visible in the next 10 days
Identifier
46356, 2020-062AH
Orbit
LEO
Country
Flag of USUS
Related business
Manufacturer
SpaceX/Seattle
Mission
Partially operational Commercial Communications
Bus & Motor
STARLINK, Unknown motor
Mass
260 kg wet, ~248 kg dry
Launch date (UTC)
2020-09-03 (6 years ago)
Launch vehicle
FALCON 9
Launch site
Air Force Eastern Test Range (AFETR)
Object type
Payload
Rocket body
Debris
Shape & HBR
Box + 1 Pan, 10.1 m
Radar Cross Section
13.562 m², Large (>1 m²)

Expand to show TLE details & history
Last TLE update: 21 hours ago

TLE from 21 hours ago
0 STARLINK-1665
1 46356U 20062AH  26172.54869792  .00946321  54384-3  88109-3 0  9993
2 46356  53.0263 176.7578 0001058 159.6468 200.4608 16.11690108321277
Epoch: 2026-06-21T13:10Z
TLE epoch observation values (Epoch: 2026-06-21T13:10:07.500Z)
Latitude
-0.00005°
Longitude
69.47913°
Altitude
243.784 km
Speed
7.761 km/s
True Right ascension
11h 47m 01s
True Declination
0° 00' 00"
Sunlit
Object was in daylight at epoch
Visualization orbit readout
Latitude
Unknown
Longitude
Unknown
Altitude
Unknown
Speed
Unknown
Apparent Right ascension
Unknown
Apparent Declination
Unknown
Sunlit
N/A
Visualization observer readout
Local Sidereal Time
21:36:18
Azimuth
Unknown
Elevation
Unknown
Doppler factor
Unknown
Orbital elements
Apogee altitude
243.199 km
Perigee altitude
241.798 km
Semi-major axis
6,620.635 km
Eccentricity
0.00011
Inclination
53.0263°
RAAN
176.7578°
Arg. of periapsis
159.6468°
True anomaly
200.45656°
Mean anomaly
200.4608°
Eccentric anomaly
200.45868°
Mean motion
4.02897 °/min
Orbital period
89.35 mins
BSTAR
0.00088109
Loading maneuver chart data...
Computing Atmospheric mass density...

Documentation

Showing up to 5 results
|